This demonstration page uses our WeatherBlox Daily Observations layout. Learn more.

Hourly Observations for October 15, 2016

Temp ( °F °C ) Dew Point ( °F °C ) Humidity (%) Winds ( mph kmh ) Pressure ( in mb ) Visibility ( mi km ) Precip ( " mm )
12:15 am 00:15 Clear 61 16.2 56 13.1 82 82 S 16 26 29.71 1006 10 16.09344 0 0
12:35 am 00:35 Clear 60 15.8 56 13.3 85 85 S 10 17 29.71 1006 10 16.09344 0 0
12:55 am 00:55 Clear 60 15.7 56 13.6 87 87 S 14 22 29.68 1005 10 16.09344 0 0
1:15 am 01:15 Clear 60 15.7 57 13.7 88 88 S 15 24 29.68 1005 10 16.09344 0 0
1:35 am 01:35 Clear 60 15.7 57 13.8 89 89 S 14 22 29.68 1005 10 16.09344 0 0
1:55 am 01:55 Clear 60 15.7 57 14 90 90 S 13 20 29.71 1006 10 16.09344 0 0
2:15 am 02:15 Clear 60 15.5 57 14 91 91 S 13 20 29.71 1006 10 16.09344 0 0
2:35 am 02:35 Clear 60 15.3 57 14 92 92 S 10 17 29.71 1006 10 16.09344 0 0
2:55 am 02:55 Clear 59 15.2 57 14 93 93 S 10 17 29.71 1006 10 16.09344 0 0
3:15 am 03:15 Clear 59 15.1 57 14 93 93 S 12 19 29.71 1006 10 16.09344 0 0
3:35 am 03:35 Partly Cloudy 59 15.1 57 14.1 94 94 S 9 15 29.68 1005 7 11.265408 0 0
3:55 am 03:55 Cloudy 60 15.5 58 14.5 94 94 S 13 20 29.68 1005 7 11.265408 0 0
4:15 am 04:15 Cloudy 61 16 59 14.9 93 93 S 13 20 29.68 1005 7 11.265408 0 0
4:35 am 04:35 Cloudy 62 16.5 59 15.2 92 92 S 13 20 29.68 1005 10 16.09344 0 0
4:55 am 04:55 Cloudy 62 16.9 60 15.5 92 92 S 15 24 29.65 1004 10 16.09344 0 0
5:15 am 05:15 Cloudy 63 17 60 15.5 91 91 S 13 20 29.65 1004 10 16.09344 0 0
5:35 am 05:35 Cloudy 63 17.2 60 15.6 90 90 SSW 13 20 29.65 1004 10 16.09344 0 0
5:55 am 05:55 Cloudy 63 17.2 60 15.6 90 90 S 9 15 29.65 1004 10 16.09344 0 0
6:15 am 06:15 Cloudy 63 17.3 60 15.6 90 90 SSW 7 11 29.68 1005 10 16.09344 0 0
6:35 am 06:35 Cloudy 63 17.2 60 15.6 90 90 S 9 15 29.65 1004 10 16.09344 0 0
6:55 am 06:55 Mostly Cloudy 62 16.6 59 15.2 92 92 S 9 15 29.68 1005 10 16.09344 0 0
7:15 am 07:15 Partly Cloudy 61 16.2 59 15 93 93 S 8 13 29.68 1005 7 11.265408 0 0
7:35 am 07:35 Mostly Cloudy 61 16.2 59 15 93 93 S 7 11 29.68 1005 7 11.265408 0 0
7:55 am 07:55 Mostly Cloudy 62 16.6 60 15.5 93 93 SSW 6 9 29.68 1005 7 11.265408 0 0
8:15 am 08:15 Cloudy 62 16.6 60 15.4 93 93 S 5 7 29.71 1006 7 11.265408 0 0
8:35 am 08:35 Mostly Cloudy 62 16.7 60 15.5 93 93 Calm 29.71 1006 7 11.265408 0 0
8:55 am 08:55 Cloudy with Mist and Fog 62 16.8 60 15.6 93 93 Calm 29.71 1006 5 8.04672 0 0
9:15 am 09:15 Cloudy 64 17.5 61 15.9 90 90 Calm 29.71 1006 7 11.265408 0 0
9:35 am 09:35 Mostly Cloudy 64 17.7 61 15.9 89 89 Calm 29.71 1006 10 16.09344 0 0
9:55 am 09:55 Mostly Cloudy 65 18.1 60 15.8 87 87 Calm 29.71 1006 10 16.09344 0 0
10:15 am 10:15 Mostly Cloudy 65 18.3 60 15.8 85 85 Calm 29.71 1006 10 16.09344 0 0
10:35 am 10:35 Partly Cloudy 66 19 59 15.1 78 78 W 3 6 29.71 1006 10 16.09344 0 0
10:55 am 10:55 Sunny 68 20.2 60 15.4 74 74 NW 6 9 29.71 1006 10 16.09344 0 0
11:15 am 11:15 Sunny 69 20.5 59 14.9 70 70 NNW 5 7 29.71 1006 10 16.09344 0 0
11:35 am 11:35 Sunny 70 21.3 58 14.5 65 65 N 6 9 29.68 1005 10 16.09344 0 0
11:55 am 11:55 Sunny 70 21.3 58 14.5 65 65 N 6 9 29.68 1005 10 16.09344 0 0
12:15 pm 12:15 Sunny 72 22.1 57 14.1 61 61 NNE 6 9 29.68 1005 10 16.09344 0 0
12:35 pm 12:35 Sunny 72 22.1 57 14 60 60 N 7 11 29.68 1005 10 16.09344 0 0
12:55 pm 12:55 Sunny 74 23.1 57 13.7 56 56 N 6 9 29.68 1005 10 16.09344 0 0
1:15 pm 13:15 Sunny 75 24 56 13.4 52 52 ENE 6 9 29.68 1005 10 16.09344 0 0
1:35 pm 13:35 Sunny 76 24.5 56 13.3 50 50 N 6 9 29.68 1005 10 16.09344 0 0
1:55 pm 13:55 Sunny 78 25.7 55 12.7 45 45 NE 8 13 29.65 1004 10 16.09344 0 0
2:15 pm 14:15 Sunny 78 25.5 55 12.8 45 45 NE 7 11 29.65 1004 10 16.09344 0 0
2:35 pm 14:35 Sunny 79 25.9 54 12.1 42 42 Calm 29.65 1004 10 16.09344 0 0
2:55 pm 14:55 Sunny 79 26.2 55 12.5 43 43 Calm 29.62 1003 7 11.265408 0 0
3:15 pm 15:15 Sunny 80 26.6 53 11.5 39 39 Calm 29.62 1003 10 16.09344 0 0
3:35 pm 15:35 Sunny 80 26.5 54 12 41 41 E 3 6 29.62 1003 10 16.09344 0 0
3:55 pm 15:55 Sunny 81 27.2 52 11.2 37 37 NNE 6 9 29.65 1004 10 16.09344 0 0
4:15 pm 16:15 Sunny 81 27.3 51 10.7 35 35 NE 5 7 29.65 1004 10 16.09344 0 0
4:35 pm 16:35 Sunny 81 27.1 53 11.5 38 38 N 6 9 29.65 1004 10 16.09344 0 0
4:55 pm 16:55 Sunny 80 26.8 52 11.2 38 38 NNE 3 6 29.65 1004 10 16.09344 0 0
5:15 pm 17:15 Sunny 80 26.6 52 11 38 38 NE 5 7 29.65 1004 10 16.09344 0 0
5:35 pm 17:35 Sunny 79 26.2 53 11.5 40 40 NNE 6 9 29.65 1004 10 16.09344 0 0
5:55 pm 17:55 Sunny 78 25.8 52 10.9 39 39 ENE 7 11 29.65 1004 10 16.09344 0 0
6:15 pm 18:15 Hazy 77 25.1 53 11.5 43 43 ENE 6 9 29.65 1004 5 8.04672 0 0
6:35 pm 18:35 Sunny 74 23.4 53 11.5 47 47 ENE 5 7 29.68 1005 10 16.09344 0 0
6:55 pm 18:55 Sunny 70 21.2 53 11.4 54 54 NE 5 7 29.68 1005 10 16.09344 0 0
7:15 pm 19:15 Clear 68 20 52 11.3 57 57 NE 6 9 29.74 1007 10 16.09344 0 0
7:35 pm 19:35 Clear 65 18.1 51 10.8 63 63 NNE 7 11 29.74 1007 10 16.09344 0 0
7:55 pm 19:55 Clear 61 16 50 10.1 68 68 NE 7 11 29.77 1008 10 16.09344 0 0
8:15 pm 20:15 Clear 61 16.2 51 10.4 69 69 NE 7 11 29.77 1008 10 16.09344 0 0
8:35 pm 20:35 Clear 63 17.2 52 11.1 68 68 E 9 15 29.77 1008 10 16.09344 0 0
8:55 pm 20:55 Clear 61 16.2 51 10.7 70 70 ESE 5 7 29.77 1008 10 16.09344 0 0
9:15 pm 21:15 Clear 59 15.1 51 10.8 76 76 Calm 29.8 1009 10 16.09344 0 0
9:35 pm 21:35 Clear 58 14.3 51 10.5 78 78 ENE 3 6 29.83 1010 10 16.09344 0 0
9:55 pm 21:55 Clear 58 14.5 51 10.6 78 78 Calm 29.8 1009 10 16.09344 0 0
10:15 pm 22:15 Clear 57 13.7 51 10.3 80 80 ENE 6 9 29.83 1010 10 16.09344 0 0
10:35 pm 22:35 Clear 57 13.7 51 10.6 82 82 ENE 5 7 29.83 1010 10 16.09344 0 0
10:55 pm 22:55 Clear 55 12.9 51 10.5 85 85 NE 8 13 29.83 1010 7 11.265408 0 0
11:15 pm 23:15 Clear 56 13.3 52 11 86 86 ENE 6 9 29.83 1010 10 16.09344 0 0
11:35 pm 23:35 Clear 55 13 52 10.9 87 87 ENE 5 7 29.83 1010 10 16.09344 0 0
11:55 pm 23:55 Clear 55 12.7 52 11 89 89 ENE 6 9 29.83 1010 10 16.09344 0 0

Powered by AerisWeather